Weather History for Flint, MI

Change the Weather History Date:

Sunday, June 2, 2013

  Actual Average Record
Temperature  
Mean Temperature 60 °F 62 °F  
Max Temperature 70 °F 74 °F 102 °F (1934)
Min Temperature 50 °F 51 °F 36 °F (1994)
Degree Days  
Heating Degree Days 5 5  
Month to date heating degree days 5 10  
Since 1 June heating degree days 5 10  
Since 1 July heating degree days 6426 6897  
Cooling Degree Days 0 2  
Month to date cooling degree days 9 4  
Year to date cooling degree days 88 36  
Since 1 June cooling degree days 9 4  
Growing Degree Days 10 (Base 50)    
Moisture  
Dew Point 52 °F    
Average Humidity 73    
Maximum Humidity 84    
Minimum Humidity 61    
Precipitation  
Precipitation 0.00 in 0.10 in 1.64 in (1950)
Month to date precipitation 0.12 0.20  
Year to date precipitation 16.88 11.19  
Snow  
Snow 0.00 in 0.00 in 0.00 in ()
Month to date snowfall 0.0 0.0  
Since 1 June snowfall 0.0 0.0  
Since 1 July snowfall 43.8 47.4  
Snow Depth 0.00 in    
Sea Level Pressure  
Sea Level Pressure 29.80 in    
Wind  
Wind Speed 13 mph (West)    
Max Wind Speed 24 mph    
Max Gust Speed 32 mph    
Visibility 10 miles    
Events      
T = Trace of Precipitation, MM = Missing Value Source: NWS Daily Summary

Daily Weather History Graph

Daily Weather History Graph

Search for Another Location

Airport:

Trip Planner

Search our weather history database for the weather conditions in past years. The results will help you decide how hot, cold, wet, or windy it might be!

Date:

Astronomy

Jun. 02, 2013 Rise Set
Actual Time 5:58 AM EDT 9:08 PM EDT
Civil Twilight 5:23 AM EDT 9:42 PM EDT
Nautical Twilight 4:39 AM EDT 10:27 PM EDT
Astronomical Twilight 3:45 AM EDT 11:21 PM EDT
Moon 2:32 AM EDT (6/2) 3:30 PM EDT (6/2)
Length of Visible Light 16h 19m
Length of Day
15h 10m
Waning Crescent, 31% of the Moon is Illuminated
Jun 2
Waning Crescent
Jun 8
New
Jun 16
First Quarter
Jun 23
Full
Jun 30
Last Quarter

Hourly Weather History & Observations

Time (EDT) Temp. Dew Point Humidity Pressure Visibility Wind Dir Wind Speed Gust Speed Precip Events Conditions
12:53 AM 69.1 °F 61.0 °F 75% 29.67 in 10.0 mi SSW 6.9 mph - N/A   Overcast
1:53 AM 69.1 °F 61.0 °F 75% 29.64 in 10.0 mi SSW 5.8 mph - N/A   Mostly Cloudy
2:53 AM 69.1 °F 61.0 °F 75% 29.63 in 10.0 mi SW 11.5 mph - N/A   Mostly Cloudy
3:53 AM 68.0 °F 55.9 °F 65% 29.65 in 10.0 mi WSW 11.5 mph - N/A   Overcast
4:53 AM 64.9 °F 55.9 °F 73% 29.65 in 10.0 mi WSW 6.9 mph - N/A   Overcast
5:18 AM 64.4 °F 57.2 °F 77% 29.66 in 10.0 mi SW 6.9 mph - N/A   Overcast
5:53 AM 64.9 °F 57.0 °F 75% 29.66 in 10.0 mi SW 9.2 mph - N/A   Overcast
6:26 AM 64.4 °F 57.2 °F 77% 29.67 in 10.0 mi WSW 9.2 mph - N/A   Overcast
6:40 AM 64.4 °F 57.2 °F 77% 29.67 in 10.0 mi SW 9.2 mph - N/A   Overcast
6:53 AM 64.9 °F 59.0 °F 81% 29.67 in 10.0 mi WSW 9.2 mph - N/A   Overcast
7:53 AM 64.9 °F 57.9 °F 78% 29.69 in 10.0 mi WSW 10.4 mph - N/A   Overcast
8:53 AM 66.0 °F 57.9 °F 75% 29.70 in 10.0 mi WSW 13.8 mph 23.0 mph N/A   Overcast
9:53 AM 66.9 °F 57.0 °F 70% 29.72 in 10.0 mi WSW 16.1 mph 21.9 mph N/A   Overcast
10:53 AM 64.9 °F 55.9 °F 73% 29.75 in 10.0 mi West 20.7 mph 28.8 mph N/A   Overcast
11:53 AM 66.9 °F 55.9 °F 68% 29.78 in 10.0 mi WNW 21.9 mph 27.6 mph N/A   Overcast
12:53 PM 66.0 °F 54.0 °F 65% 29.81 in 10.0 mi West 16.1 mph 23.0 mph N/A   Mostly Cloudy
1:53 PM 64.0 °F 52.0 °F 65% 29.84 in 10.0 mi WNW 18.4 mph 24.2 mph N/A   Overcast
2:53 PM 64.0 °F 52.0 °F 65% 29.86 in 10.0 mi WNW 15.0 mph 23.0 mph N/A   Overcast
3:53 PM 62.1 °F 51.1 °F 67% 29.88 in 10.0 mi NW 16.1 mph - N/A   Overcast
4:53 PM 61.0 °F 48.9 °F 64% 29.90 in 10.0 mi WNW 15.0 mph - N/A   Overcast
5:53 PM 59.0 °F 46.9 °F 64% 29.92 in 10.0 mi WNW 13.8 mph - N/A   Overcast
6:18 PM 59.0 °F 46.4 °F 63% 29.92 in 10.0 mi NW 16.1 mph 20.7 mph N/A   Overcast
6:53 PM 57.9 °F 46.0 °F 65% 29.93 in 10.0 mi NW 13.8 mph - N/A   Overcast
7:53 PM 57.0 °F 44.1 °F 62% 29.94 in 10.0 mi NNW 12.7 mph - N/A   Overcast
8:31 PM 55.4 °F 42.8 °F 63% 29.96 in 10.0 mi NNW 13.8 mph - N/A   Overcast
8:53 PM 55.0 °F 43.0 °F 64% 29.96 in 10.0 mi NNW 10.4 mph - N/A   Overcast
9:00 PM 55.4 °F 42.8 °F 63% 29.96 in 10.0 mi NW 12.7 mph - N/A   Overcast
9:53 PM 54.0 °F 42.1 °F 64% 29.97 in 10.0 mi NW 11.5 mph - N/A   Overcast
10:53 PM 53.1 °F 41.0 °F 64% 30.00 in 10.0 mi North 10.4 mph - N/A   Overcast
11:53 PM 52.0 °F 39.9 °F 63% 30.02 in 10.0 mi North 12.7 mph - N/A   Overcast